Flag for Kuwait Weather past 2 weeks in Kuwait City, Kuwait

Now
99 °F

Clear.


Feels Like: 95 °F
Forecast: 83 / 105 °F
Wind: 8 mph from Northeast

Location: Kuwait International Airport

Current Time: Sep 23, 2014 at 8:24:54 PM

Latest Report: Sep 23, 2014 at 8:00 PM


Visibility: 10 mi

Pressure: 29.77 "Hg

Humidity: 18%

Dew point: 48 °F

Location of Kuwait CityLocation

Historic Weather in Kuwait City — Graph

°F

Kuwait City temperature yesterday

Maximum temperature yesterday: 106 °F (at 1:00 PM)
Minimum temperature yesterday: 90 °F (at 3:00 AM)
Average temperature yesterday: 100 °F

Past Weeks' High & Low Weather Summary

 TemperatureHumidityPressure
High113 °F (Sep 21, 3:00 AM)46% (Sep 16, 10:00 PM)29.86 "Hg (Sep 16, 10:00 PM)
Low75 °F (Sep 21, 4:00 AM)8% (Sep 10, 3:30 PM)29.56 "Hg (Sep 16, 2:00 PM)
Average97 °F18%29.68 "Hg
* Reported Sep 8 7:00 PM — Sep 23 7:00 PM, Kuwait City, Weather by CustomWeather, © 2014

Note: Actual official high and low records may vary slightly from our data, if they occured in-between our weather recording intervals... More about our weather records

Advertising

Kuwait City weather history for previous 24 hours

 ConditionsComfort  
Time TempWeatherWind HumidityBarometerVisibility
7:00 PM
Sep 23
97 °FClear.5 mph18%29.77 "Hg10 mi
6:00 PM100 °FClear.3 mph17%29.77 "Hg10 mi
5:00 PM104 °FSunny.5 mph14%29.74 "Hg10 mi
4:00 PM106 °FSunny.10 mph13%29.74 "Hg10 mi
3:00 PM108 °FSunny.9 mph13%29.74 "Hg10 mi
2:00 PM106 °FSunny.12 mph13%29.77 "Hg10 mi
1:00 PM106 °FSunny.12 mph13%29.74 "Hg10 mi
12:00 PM106 °FSunny.13 mph14%29.77 "Hg10 mi
11:00 AM102 °FSunny.12 mph15%29.77 "Hg10 mi
10:00 AM100 °FSunny.14 mph17%29.80 "Hg10 mi
9:00 AM97 °FSunny.9 mph20%29.80 "Hg10 mi
8:00 AM93 °FSunny.10 mph21%29.77 "Hg10 mi
7:00 AM90 °FSunny.7 mph29%29.77 "Hg10 mi
6:00 AM88 °FSunny.8 mph29%29.77 "Hg10 mi
5:00 AM86 °FClear.6 mph31%29.74 "Hg10 mi
4:00 AM90 °FClear.14 mph26%29.74 "Hg10 mi
3:00 AM86 °FClear.6 mph31%29.74 "Hg10 mi
2:00 AM91 °FClear.8 mph23%29.71 "Hg10 mi
1:00 AM90 °FClear.7 mph27%29.71 "Hg10 mi
12:00 AM90 °FClear.6 mph24%29.74 "Hg10 mi
11:00 PM
Sep 22
93 °FClear.7 mph20%29.74 "Hg10 mi
10:00 PM93 °FClear.7 mph19%29.74 "Hg10 mi
9:00 PM97 °FClear.9 mph16%29.74 "Hg10 mi
8:00 PM99 °FClear.9 mph17%29.74 "Hg10 mi
Weather by CustomWeather, © 2014

See weather overviewHow to use our weather pages